Stevensville, MD

6:22 PM EDT on October 18, 2017 (GMT -0400)
Stevensville

Weather History for KW29 - May, 2014

Change the Weather History Date:

Saturday, May 10, 2014

  Actual Average (KESN) Record (KESN)
Temperature  
Mean Temperature 72 °F -  
Max Temperature 77 °F 71 °F 93 °F (1963)
Min Temperature 64 °F 48 °F 35 °F (1966)
Cooling Degree Days 6    
Growing Degree Days 22 (Base 50)    
Moisture  
Dew Point 61 °F    
Average Humidity 72    
Maximum Humidity 83    
Minimum Humidity 60    
Precipitation  
Precipitation 0.00 in - - ()
Sea Level Pressure  
Sea Level Pressure 29.96 in    
Wind  
Wind Speed 6 mph (SW)    
Max Wind Speed 14 mph    
Max Gust Speed 24 mph    
Visibility 10 miles    
Events Rain    
Averages and records for this station are not official NWS values.
T = Trace of Precipitation, MM = Missing Value Source: NWS Daily Summary

Daily Weather History Graph

Daily Weather History Graph

Search for Another Location

Airport or City:

Trip Planner

Search our weather history database for the weather conditions in past years. The results will help you decide how hot, cold, wet, or windy it might be!

Date:

Astronomy

May. 10, 2014 Rise Set
Actual Time 5:57 AM EDT 8:06 PM EDT
Civil Twilight 5:27 AM EDT 8:36 PM EDT
Nautical Twilight 4:51 AM EDT 9:12 PM EDT
Astronomical Twilight 4:12 AM EDT 9:52 PM EDT
Moon 4:02 PM EDT (5/10) 3:27 AM EDT (5/10)
Length of Visible Light 15h 08m
Length of Day
14h 09m
Waxing Gibbous, 82% of the Moon is Illuminated
May 10
Waxing Gibbous
May 14
Full
May 21
Last Quarter
May 28
New
Jun 5
First Quarter

Hourly Weather History & Observations

Time (EDT) Temp. Dew Point Humidity Pressure Visibility Wind Dir Wind Speed Gust Speed Precip Events Conditions
12:19 AM 68.0 °F 62.6 °F 83% 29.95 in 10.0 mi South 6.9 mph - N/A   Clear
12:39 AM 68.0 °F 62.6 °F 83% 29.94 in 10.0 mi SSW 6.9 mph - N/A   Clear
12:59 AM 69.8 °F 62.6 °F 78% 29.94 in 10.0 mi SSW 6.9 mph - N/A   Clear
1:19 AM 71.6 °F 62.6 °F 73% 29.94 in 10.0 mi SSW 8.1 mph - N/A   Clear
1:39 AM 71.6 °F 62.6 °F 73% 29.93 in 10.0 mi SW 8.1 mph - N/A   Clear
1:59 AM 71.6 °F 62.6 °F 73% 29.93 in 10.0 mi SW 5.8 mph - N/A   Clear
2:19 AM 69.8 °F 62.6 °F 78% 29.93 in 10.0 mi SSW 4.6 mph - N/A   Clear
2:39 AM 69.8 °F 62.6 °F 78% 29.92 in 10.0 mi SW 4.6 mph - N/A   Clear
2:59 AM 69.8 °F 62.6 °F 78% 29.92 in 10.0 mi SW 5.8 mph - N/A   Clear
3:19 AM 71.6 °F 62.6 °F 73% 29.92 in 10.0 mi SSW 5.8 mph - N/A   Clear
3:39 AM 71.6 °F 62.6 °F 73% 29.92 in 10.0 mi SW 4.6 mph - N/A   Clear
3:59 AM 69.8 °F 62.6 °F 78% 29.92 in 10.0 mi South 5.8 mph - N/A   Clear
4:19 AM 69.8 °F 62.6 °F 78% 29.93 in 10.0 mi SSE 3.5 mph - N/A   Clear
4:39 AM 68.0 °F 62.6 °F 83% 29.93 in 10.0 mi South 5.8 mph - N/A   Clear
4:59 AM 68.0 °F 62.6 °F 83% 29.94 in 10.0 mi South 4.6 mph - N/A   Clear
5:19 AM 68.0 °F 62.6 °F 83% 29.94 in 10.0 mi South 4.6 mph - N/A   Clear
5:39 AM 68.0 °F 62.6 °F 83% 29.94 in 10.0 mi South 4.6 mph - N/A   Clear
6:00 AM 68.0 °F 62.6 °F 83% 29.96 in 10.0 mi South 4.6 mph - N/A   Clear
6:20 AM 68.0 °F 62.6 °F 83% 29.96 in 10.0 mi South 4.6 mph - N/A   Clear
6:40 AM 68.0 °F 62.6 °F 83% 29.97 in 10.0 mi South 3.5 mph - N/A   Clear
7:00 AM 68.0 °F 62.6 °F 83% 29.98 in 10.0 mi South 3.5 mph - N/A   Clear
7:20 AM 68.0 °F 62.6 °F 83% 29.99 in 10.0 mi SSW 3.5 mph - N/A   Clear
7:40 AM 69.8 °F 62.6 °F 78% 29.99 in 10.0 mi Calm Calm - N/A   Clear
8:00 AM 69.8 °F 62.6 °F 78% 29.99 in 10.0 mi South 3.5 mph - N/A   Clear
8:20 AM 69.8 °F 62.6 °F 78% 29.99 in 10.0 mi SSW 3.5 mph - N/A   Clear
8:40 AM 69.8 °F 62.6 °F 78% 29.99 in 10.0 mi SSW 3.5 mph - N/A   Clear
9:00 AM 71.6 °F 62.6 °F 73% 29.99 in 10.0 mi SW 5.8 mph - N/A   Clear
9:20 AM 71.6 °F 62.6 °F 73% 30.00 in 10.0 mi SW 8.1 mph - N/A   Clear
9:40 AM 71.6 °F 62.6 °F 73% 30.00 in 10.0 mi SW 5.8 mph - N/A   Clear
10:00 AM 71.6 °F 62.6 °F 73% 30.00 in 10.0 mi SW 4.6 mph - N/A   Clear
10:20 AM 73.4 °F 62.6 °F 69% 29.99 in 10.0 mi WSW 5.8 mph - N/A   Clear
10:40 AM 73.4 °F 62.6 °F 69% 30.00 in 10.0 mi SW 6.9 mph - N/A   Clear
11:00 AM 73.4 °F 62.6 °F 69% 30.00 in 10.0 mi SW 6.9 mph - N/A   Clear
11:20 AM 75.2 °F 62.6 °F 65% 30.00 in 10.0 mi WSW 8.1 mph - N/A   Clear
11:40 AM 77.0 °F 62.6 °F 61% 29.99 in 10.0 mi WSW 5.8 mph - N/A   Clear
12:00 PM 77.0 °F 62.6 °F 61% 29.99 in 10.0 mi SW 5.8 mph - N/A   Clear
12:20 PM 77.0 °F 62.6 °F 61% 29.99 in 10.0 mi SW 4.6 mph - N/A   Clear
12:40 PM 77.0 °F 62.6 °F 61% 30.00 in 10.0 mi SW 5.8 mph - N/A   Clear
1:00 PM 73.4 °F 62.6 °F 69% 30.00 in 7.0 mi SSW 6.9 mph - N/A Rain Light Rain
1:20 PM 73.4 °F 62.6 °F 69% 30.00 in 10.0 mi SSW 10.4 mph 16.1 mph N/A   Scattered Clouds
1:40 PM 69.8 °F 62.6 °F 78% 30.01 in 10.0 mi SSW 11.5 mph 19.6 mph N/A Rain Light Rain
2:00 PM 69.8 °F 60.8 °F 73% 29.99 in 10.0 mi SSW 9.2 mph 16.1 mph N/A Rain Light Rain
2:21 PM 71.6 °F 59.0 °F 64% 29.98 in 10.0 mi SW 9.2 mph - N/A   Scattered Clouds
2:41 PM 71.6 °F 59.0 °F 64% 29.97 in 10.0 mi SW 5.8 mph - N/A   Clear
3:01 PM 71.6 °F 59.0 °F 64% 29.97 in 10.0 mi SW 8.1 mph - N/A   Clear
3:21 PM 71.6 °F 59.0 °F 64% 29.96 in 10.0 mi SW 6.9 mph - N/A   Clear
3:41 PM 71.6 °F 60.8 °F 69% 29.96 in 10.0 mi SW 8.1 mph - N/A   Clear
4:01 PM 73.4 °F 60.8 °F 65% 29.96 in 10.0 mi WSW 8.1 mph - N/A   Clear
4:21 PM 71.6 °F 60.8 °F 69% 29.94 in 10.0 mi WSW 6.9 mph - N/A   Clear
4:41 PM 73.4 °F 59.0 °F 61% 29.92 in 10.0 mi WSW 5.8 mph - N/A   Clear
5:01 PM 73.4 °F 59.0 °F 61% 29.93 in 10.0 mi SW 8.1 mph - N/A   Clear
5:21 PM 73.4 °F 59.0 °F 61% 29.93 in 10.0 mi SSW 9.2 mph - N/A   Clear
5:41 PM 71.6 °F 59.0 °F 64% 29.92 in 10.0 mi WSW 6.9 mph - N/A   Clear
6:01 PM 69.8 °F 59.0 °F 68% 29.92 in 10.0 mi SW 4.6 mph - N/A   Clear
6:21 PM 71.6 °F 57.2 °F 60% 29.92 in 10.0 mi SSW 5.8 mph - N/A   Clear
6:41 PM 71.6 °F 57.2 °F 60% 29.93 in 10.0 mi SSW 5.8 mph - N/A   Clear
7:01 PM 71.6 °F 59.0 °F 64% 29.94 in 10.0 mi SW 9.2 mph - N/A   Clear
7:21 PM 71.6 °F 59.0 °F 64% 29.94 in 10.0 mi SW 6.9 mph - N/A   Clear
7:41 PM 71.6 °F 59.0 °F 64% 29.94 in 10.0 mi SSW 3.5 mph - N/A   Clear
8:01 PM 69.8 °F 59.0 °F 68% 29.94 in 10.0 mi SSW 3.5 mph - N/A   Clear
8:21 PM 71.6 °F 59.0 °F 64% 29.95 in 10.0 mi SSW 3.5 mph - N/A   Clear
8:41 PM 71.6 °F 59.0 °F 64% 29.95 in 10.0 mi South 4.6 mph - N/A   Scattered Clouds
9:01 PM 69.8 °F 60.8 °F 73% 29.95 in 10.0 mi SSW 6.9 mph - N/A   Scattered Clouds
9:21 PM 69.8 °F 60.8 °F 73% 29.96 in 10.0 mi SSW 5.8 mph - N/A   Scattered Clouds
10:01 PM 69.8 °F 59.0 °F 68% 29.97 in 10.0 mi SW 9.2 mph - N/A   Scattered Clouds
11:02 PM 68.0 °F 57.2 °F 68% 30.00 in 10.0 mi WNW 13.8 mph 24.2 mph N/A   Scattered Clouds
11:22 PM 66.2 °F 59.0 °F 78% 30.00 in 10.0 mi WNW 8.1 mph - N/A   Mostly Cloudy
11:42 PM 64.4 °F 59.0 °F 83% 29.99 in 10.0 mi West 4.6 mph - N/A   Scattered Clouds